Home   Weather   Soltau   Past weeks

Flag for Germany Past Weather in Soltau, Lower Saxony, Germany — Yesterday and Last 2 Weeks

34 °F


Feels Like: 34 °F
Forecast: 40 / 54 °F
Wind: No wind

Location: Fassberg

Current Time: Oct 26, 2016 at 4:20:13 AM

Latest Report: Oct 26, 2016 at 3:20 AM

Visibility: 0 mi

Pressure: 30.36 "Hg

Humidity: 100%

Dew Point: 34 °F

Location of SoltauLocation

Past Weather in Soltau — Graph


Soltau Temperature Yesterday

Maximum temperature yesterday: 48 °F (at 2:20 PM)
Minimum temperature yesterday: 32 °F (at 11:20 PM)
Average temperature yesterday: 43 °F

High & Low Weather Summary for the Past Weeks

High63 °F (Oct 16, 2:20 PM)100% (Oct 11, 8:48 AM)30.36 "Hg (Oct 11, 8:48 AM)
Low30 °F (Oct 26, 12:20 AM)59% (Oct 16, 2:20 PM)29.77 "Hg (Oct 15, 5:20 AM)
Average46 °F89%30.04 "Hg
* Reported Oct 11 2:20 AM — Oct 26 2:20 AM, Soltau, Weather by CustomWeather, © 2016

Note: Actual official high and low records may vary slightly from our data, if they occured in-between our weather recording intervals... More about our weather records


Soltau Weather History for the Previous 24 Hours

Scroll right to see more
Time TempWeatherWind HumidityBarometerVisibility
2:20 AM
Wed, Oct 26
32 °FFog.1 mph100%30.36 "Hg0 mi
1:20 AM32 °FIce fog.1 mph100%30.36 "Hg1 mi
12:20 AM30 °FIce fog.1 mph100%30.36 "Hg1 mi
11:20 PM
Tue, Oct 25
32 °FIce fog.1 mph93%30.33 "Hg1 mi
10:20 PM34 °FFog.2 mph93%30.33 "Hg1 mi
9:20 PM34 °FFog.No wind100%30.30 "Hg1 mi
8:20 PM36 °FFog.1 mph93%30.30 "Hg1 mi
7:20 PM37 °FFog.No wind93%30.30 "Hg1 mi
6:20 PM43 °FFog.3 mph87%30.27 "Hg5 mi
5:49 PM45 °FFog.3 mph87%30.27 "HgN/A
5:20 PM46 °FPartly sunny.7 mph82%30.24 "HgN/A
4:20 PM46 °FPartly sunny.6 mph87%30.24 "HgN/A
3:20 PM48 °FBroken clouds.5 mph87%30.21 "Hg5 mi
2:47 PM48 °FPartly sunny.5 mph87%30.21 "Hg5 mi
2:20 PM48 °FBroken clouds.5 mph82%30.21 "Hg4 mi
1:20 PM46 °FFog.5 mph93%30.18 "Hg3 mi
12:20 PM46 °FFog.3 mph93%30.18 "Hg2 mi
11:20 AM46 °FFog.3 mph93%30.18 "Hg1 mi
10:20 AM45 °FFog.3 mph93%30.15 "Hg1 mi
9:20 AM45 °FFog.2 mph93%30.12 "Hg1 mi
8:20 AM45 °FDrizzle. Fog.5 mph93%30.09 "Hg1 mi
7:20 AM45 °FDrizzle. Fog.3 mph93%30.09 "Hg1 mi
6:20 AM45 °FDrizzle. Fog.3 mph93%30.07 "Hg1 mi
5:20 AM45 °FLight rain. Fog.5 mph93%30.07 "Hg1 mi
4:20 AM45 °FFog.3 mph93%30.04 "Hg1 mi
Weather by CustomWeather, © 2016

See weather overviewHow to use our weather pages